STARLINK-3988 (52625 NORAD) Tracking and Keplerian Element Data
This shows tracking and keplerian element data for the satellite.
Feedback or suggestion? Click here.
Element | Value |
Catalog | 52625 |
Name | STARLINK-3988 |
Epoch Orbit | 130 |
Epoch Day | 192.91667824 |
Epoch Year | 2022 |
RAAN | 152.9944 |
Inclination | 53.2169 |
Eccentricity | 0.0001314 |
Argument of Perigee | 83.3495 |
Mean Anonmoly | 132.6503 |
Mean Motion | 15.54838142 |
Decay Rate | -0.00880581 |
L1 | 1 52625U 22052AD 22192.91667824 -.00880581 00000+0 -14245-1 0 9998 |
L2 | 2 52625 53.2169 152.9944 0001314 83.3495 132.6503 15.54838142 1308 |
Live tracking and technical data element details for STARLINK-3988 (NORAD 52625). STARLINK-3988 can be tracked NOW for your location showing map with azimuth and elevation plus other details from your city location.
Track the satellite on the map from your city or location and see movement details for azimuth, elevation, latitude, longitude, range, height, and movement on the map or in text.
IsCatalogInMostPopularTable: catalog: 52625, numindb: 7
Update: records affected: 1
GetName: 52625 STARLINK-3988
Hit Count: updated at: Sun, 14 Aug 2022 01:39:47 GMT